(193935) = 2001 RX27

Discovered at Socorro on 2001-09-07 by LINEAR.

Orbit

Orbit type: Main Belt

Note: WebGL enabled browser required.

epoch2024-03-31.0
epoch JD2460400.5
perihelion date2021-12-17.16433
perihelion JD2459565.66433
argument of perihelion (°)138.24708
ascending node (°)191.21350
inclination (°)1.06791
eccentricity0.2389436
perihelion distance (AU)1.7172177
Tisserand w.r.t. Jupiter3.6
ΔV w.r.t. Earth (km/sec)8.1
semimajor axis (AU)2.2563605
mean anomaly (°)242.76837
mean daily motion (°/day)0.29079780
aphelion distance (AU)2.796
period (years)3.39
P-vector [x]0.86125734
P-vector [y]-0.47103376
P-vector [z]-0.19069082
Q-vector [x]0.50815613
Q-vector [y]0.79562287
Q-vector [z]0.32979022
absolute magnitude17.98
phase slope0.15
uncertainty0
referenceMPEC 2024-F14
observations used332
oppositions12
arc length (days)8277
first opposition used2001
last opposition used2024
residual rms (arc-secs)0.66
perturbers coarse indicatorM-v
perturbers precise indicator003Ek
first observation date used2001-07-19.0
last observation date used2024-03-17.0
computer nameMPCLINUX
JD of orbit computation2456789.263316
perihelion JD uncertainty (days)1.0638E-04
argument of perihelion uncertainty (°)2.4907E-04
ascending node uncertainty (°)2.4787E-04
inclination uncertainty (°)6.5039E-06
eccentricity uncertainty 5.3626E-08
perihelion distance uncertainty (AU)1.1604E-07
Minimum Orbit Intersection Distances (in AU)
for orbit epoch: 2460400.5, reference: E2024-F14
Mercury1.31058
Venus0.99224
Earth0.70618
Mars0.34159
Jupiter2.55202
Saturn6.39961
Uranus15.6578
Neptune27.4974

Observations

340 total observations over interval: 2001 07 19.37009 – 2024 03 17.521295
These data are available for download (format description).

Date (UT) J2000 RA J2000 Dec Magn Location Ref
2001 07 19.37009 22 41 38.32 -06 19 35.5 19.4 R 699 – Lowell Observatory-LONEOS MPS 37967
2001 07 19.38892 22 41 38.57 -06 19 32.0   699 – Lowell Observatory-LONEOS MPS 37967
2001 07 19.40776 22 41 38.93 -06 19 29.7   699 – Lowell Observatory-LONEOS MPS 37967
2001 07 19.42659 22 41 39.10 -06 19 28.0   699 – Lowell Observatory-LONEOS MPS 37967
2001 08 12.58114 22 38 21.76 -06 43 42.0 20.1   608 – Haleakala-AMOS MPS 37967
2001 08 12.59131 22 38 21.42 -06 43 44.8 20.3   608 – Haleakala-AMOS MPS 37967
2001 08 12.60148 22 38 21.07 -06 43 46.4 20.2   608 – Haleakala-AMOS MPS 37967
2001 08 16.27607 22 36 19.96 -06 58 24.3 18.8   704 – Lincoln Laboratory ETS, New Mexico MPS 37967
2001 08 16.28833 22 36 19.50 -06 58 27.8 18.9   704 – Lincoln Laboratory ETS, New Mexico MPS 37967
2001 08 16.30065 22 36 18.98 -06 58 30.8 19.0   704 – Lincoln Laboratory ETS, New Mexico MPS 37967
2001 08 16.31291 22 36 18.49 -06 58 34.8 19.0   704 – Lincoln Laboratory ETS, New Mexico MPS 37967
2001 08 16.32513 22 36 18.00 -06 58 37.0 19.2   704 – Lincoln Laboratory ETS, New Mexico MPS 37967
2001 08 21.17236 22 33 12.91 -07 20 47.6 17.0 R 807 – Cerro Tololo Observatory, La Serena MPS 37967
2001 08 21.24742 22 33 09.54 -07 21 09.8   807 – Cerro Tololo Observatory, La Serena MPS 37967
2001 08 23.27660 22 31 46.46 -07 31 33.1 18.2 R 699 – Lowell Observatory-LONEOS MPS 37967
2001 08 23.29997 22 31 45.34 -07 31 40.1   699 – Lowell Observatory-LONEOS MPS 37967
2001 08 23.32337 22 31 44.34 -07 31 47.2   699 – Lowell Observatory-LONEOS MPS 37967
2001 08 23.34682 22 31 43.26 -07 31 54.0   699 – Lowell Observatory-LONEOS MPS 37967
2001 08 27.24041 22 28 58.66 -07 52 15.4 17.8 R 699 – Lowell Observatory-LONEOS MPS 37967
2001 08 27.26390 22 28 57.47 -07 52 23.4   699 – Lowell Observatory-LONEOS MPS 37967
2001 08 27.28753 22 28 56.41 -07 52 30.9   699 – Lowell Observatory-LONEOS MPS 37967
2001 08 27.31096 22 28 55.35 -07 52 38.7   699 – Lowell Observatory-LONEOS MPS 37967
2001 08 28.22193 22 28 16.74 -07 57 30.0 17.8   644 – Palomar Mountain/NEAT MPS 37967
2001 08 28.24346 22 28 15.74 -07 57 37.0 18.0   644 – Palomar Mountain/NEAT MPS 37967
2001 08 28.26483 22 28 14.75 -07 57 44.1 17.9   644 – Palomar Mountain/NEAT MPS 37967
2001 09 07.20817 22 21 27.77 -08 50 06.3 19.4   704 – Lincoln Laboratory ETS, New Mexico MPS 34992
2001 09 07.22198 22 21 27.32 -08 50 09.5 19.4   704 – Lincoln Laboratory ETS, New Mexico MPS 34992
2001 09 07.23585 22 21 26.74 -08 50 13.7 19.7   704 – Lincoln Laboratory ETS, New Mexico MPS 34992
2001 09 12.26664 22 18 32.96 -09 14 08.9 18.4   704 – Lincoln Laboratory ETS, New Mexico MPS 34992
2001 09 12.28114 22 18 32.44 -09 14 12.7 19.1   704 – Lincoln Laboratory ETS, New Mexico MPS 34992
2001 09 12.29561 22 18 31.93 -09 14 16.2 19.2   704 – Lincoln Laboratory ETS, New Mexico MPS 34992
2001 09 12.31021 22 18 31.44 -09 14 20.0 18.9   704 – Lincoln Laboratory ETS, New Mexico MPS 34992
2001 09 12.32472 22 18 30.90 -09 14 23.6 19.5   704 – Lincoln Laboratory ETS, New Mexico MPS 34992
2001 09 21.18147 22 15 00.88 -09 47 48.4 18.8   704 – Lincoln Laboratory ETS, New Mexico MPS 36237
2001 09 21.19568 22 15 00.59 -09 47 51.2 19.1   704 – Lincoln Laboratory ETS, New Mexico MPS 36237
2001 09 21.20991 22 15 00.33 -09 47 54.1 19.7   704 – Lincoln Laboratory ETS, New Mexico MPS 36237
2001 09 21.22428 22 15 00.05 -09 47 56.3 19.4   704 – Lincoln Laboratory ETS, New Mexico MPS 36237
2001 09 21.23852 22 14 59.77 -09 47 59.1 19.2   704 – Lincoln Laboratory ETS, New Mexico MPS 36237
2005 12 05.47107 06 58 27.59 +21 05 06.1 21.3 V 691 – Steward Observatory, Kitt Peak-Spacewatch MPS 205494
2005 12 05.48843 06 58 26.66 +21 05 07.4 21.6 V 691 – Steward Observatory, Kitt Peak-Spacewatch MPS 205494
2005 12 05.50580 06 58 25.67 +21 05 08.2 21.7 V 691 – Steward Observatory, Kitt Peak-Spacewatch MPS 205494
2007 03 26.29514 12 23 12.15 -02 41 09.3 20.5 V G96 – Mt. Lemmon Survey MPS 205494
2007 03 26.30341 12 23 11.65 -02 41 05.6 19.9 V G96 – Mt. Lemmon Survey MPS 205494
2007 03 26.31164 12 23 11.14 -02 41 02.6 20.7 V G96 – Mt. Lemmon Survey MPS 205494
2007 03 26.31982 12 23 10.71 -02 40 59.5 20.9 V G96 – Mt. Lemmon Survey MPS 205494
2007 04 07.26763 12 11 32.92 -01 20 49.2 21.6 V G96 – Mt. Lemmon Survey MPS 206124
2007 04 07.27396 12 11 32.56 -01 20 47.2 21.1 V G96 – Mt. Lemmon Survey MPS 206124
2007 04 07.28035 12 11 32.20 -01 20 43.8 21.8 V G96 – Mt. Lemmon Survey MPS 206124
2007 04 07.28661 12 11 31.81 -01 20 42.2 21.3 V G96 – Mt. Lemmon Survey MPS 206124
2008 09 07.45110 02 54 34.16 +16 28 01.5 20.6 V G96 – Mt. Lemmon Survey MPS 255757
2008 09 07.45740 02 54 34.38 +16 28 02.3 20.4 V G96 – Mt. Lemmon Survey MPS 255757
2008 09 07.46374 02 54 34.52 +16 28 02.4 20.6 V G96 – Mt. Lemmon Survey MPS 255757
2008 09 07.47009 02 54 34.70 +16 28 03.1 20.6 V G96 – Mt. Lemmon Survey MPS 255757
2008 10 26.25525 02 35 45.10 +14 15 24.5 19.9   704 – Lincoln Laboratory ETS, New Mexico MPS 261292
2008 10 26.26675 02 35 44.29 +14 15 20.9 19.8   704 – Lincoln Laboratory ETS, New Mexico MPS 261292
2008 10 26.27826 02 35 43.64 +14 15 15.8 20.1   704 – Lincoln Laboratory ETS, New Mexico MPS 261292
2008 10 26.30135 02 35 42.07 +14 15 08.2 20.0   704 – Lincoln Laboratory ETS, New Mexico MPS 261292
2008 10 28.29473 02 33 36.79 +14 03 38.5 18.8 V G96 – Mt. Lemmon Survey MPS 261292
2008 10 28.29968 02 33 36.46 +14 03 36.7 18.7 V G96 – Mt. Lemmon Survey MPS 261292
2008 10 28.30461 02 33 36.14 +14 03 35.1 18.8 V G96 – Mt. Lemmon Survey MPS 261292
2008 10 28.30955 02 33 35.82 +14 03 33.3 19.3 V G96 – Mt. Lemmon Survey MPS 261292
2008 10 28.40668 02 33 29.41 +14 02 59.4 19.2 V G96 – Mt. Lemmon Survey MPS 261292
2008 10 28.41157 02 33 29.05 +14 02 57.5 19.2 V G96 – Mt. Lemmon Survey MPS 261292
2008 10 28.41655 02 33 28.72 +14 02 56.0 19.1 V G96 – Mt. Lemmon Survey MPS 261292
2008 10 28.42146 02 33 28.40 +14 02 54.0 19.2 V G96 – Mt. Lemmon Survey MPS 261292
2008 10 30.23594 02 31 34.68 +13 52 26.1 19.5 V 703 – Catalina Sky Survey MPS 261292
2008 10 30.24251 02 31 34.21 +13 52 23.1 19.5 V 703 – Catalina Sky Survey MPS 261292
2008 10 30.24925 02 31 33.78 +13 52 21.6 19.4 V 703 – Catalina Sky Survey MPS 261292
2008 10 30.25582 02 31 33.34 +13 52 18.5 19.4 V 703 – Catalina Sky Survey MPS 261292
2008 11 01.15165 02 29 34.68 +13 41 23.0 19.6 V 691 – Steward Observatory, Kitt Peak-Spacewatch MPS 263025
2008 11 01.16932 02 29 33.56 +13 41 17.1 19.6 V 691 – Steward Observatory, Kitt Peak-Spacewatch MPS 263025
2008 11 01.18698 02 29 32.41 +13 41 11.1 19.6 V 691 – Steward Observatory, Kitt Peak-Spacewatch MPS 263025
2008 11 01.25422 02 29 28.04 +13 40 47.5 20.1   704 – Lincoln Laboratory ETS, New Mexico MPS 263025
2008 11 01.26592 02 29 27.20 +13 40 43.9 20.4   704 – Lincoln Laboratory ETS, New Mexico MPS 263025
2008 11 01.27763 02 29 26.45 +13 40 40.9 20.4   704 – Lincoln Laboratory ETS, New Mexico MPS 263025
2008 11 01.30126 02 29 24.89 +13 40 32.9 20.2   704 – Lincoln Laboratory ETS, New Mexico MPS 263025
2008 11 08.14717 02 22 33.08 +13 02 34.7 19.6 V 691 – Steward Observatory, Kitt Peak-Spacewatch MPS 264530
2008 11 08.16479 02 22 32.01 +13 02 29.7 19.8 V 691 – Steward Observatory, Kitt Peak-Spacewatch MPS 264530
2008 11 08.16962 02 22 31.72 +13 02 28.1 19.2 V G96 – Mt. Lemmon Survey MPS 264530
2008 11 08.17632 02 22 31.33 +13 02 26.1 19.6 V G96 – Mt. Lemmon Survey MPS 264530
2008 11 08.18240 02 22 30.96 +13 02 24.3 19.7 V 691 – Steward Observatory, Kitt Peak-Spacewatch MPS 264530
2008 11 08.18293 02 22 30.93 +13 02 24.1 18.9 V G96 – Mt. Lemmon Survey MPS 264530
2008 11 08.18973 02 22 30.54 +13 02 21.9 19.2 V G96 – Mt. Lemmon Survey MPS 264530
2008 11 17.15178 02 14 49.76 +12 19 44.0 19.8 V 691 – Steward Observatory, Kitt Peak-Spacewatch MPS 266280
2008 11 17.18351 02 14 48.25 +12 19 36.1 19.9 V 691 – Steward Observatory, Kitt Peak-Spacewatch MPS 266280
2008 11 17.21270 02 14 46.87 +12 19 29.2 19.8 V 691 – Steward Observatory, Kitt Peak-Spacewatch MPS 266280
2008 11 20.17127 02 12 42.52 +12 07 56.3 20.4 V 691 – Steward Observatory, Kitt Peak-Spacewatch MPS 266280
2008 11 20.18493 02 12 41.94 +12 07 53.6 20.4 V 691 – Steward Observatory, Kitt Peak-Spacewatch MPS 266280
